This is the latest recevied weather packets stored in our database for station/object G1SCQ. If no packets are shown the sender has not sent any weather packets the latest 10 day(s).
| Time | Temp. | Humidity | Pressure | Rain* | Wind** | Luminosity | Snow |
|---|---|---|---|---|---|---|---|
| 1778364543 | 8.89° C | 94% | 1019.7 hPa | 0 mm | - | 0 W/m² | - |
| 1778364003 | 8.89° C | 94% | 1019.5 hPa | 0 mm | - | 0 W/m² | - |
| 1778363643 | 9.44° C | 93% | 1019.5 hPa | 0 mm | - | 0 W/m² | - |
| 1778363103 | 9.44° C | 94% | 1019.5 hPa | 0 mm | - | 0 W/m² | - |
| 1778362567 | 8.89° C | 94% | 1019.9 hPa | 0 mm | - | 0 W/m² | - |
| 1778362023 | 9.44° C | 94% | 1019.8 hPa | 0 mm | - | 0 W/m² | - |
| 1778361486 | 9.44° C | 93% | 1020 hPa | 0 mm | - | 0 W/m² | - |
| 1778360946 | 9.44° C | 93% | 1019.8 hPa | 0 mm | - | 0 W/m² | - |
| 1778360406 | 9.44° C | 93% | 1019.8 hPa | 0 mm | - | 0 W/m² | - |
| 1778360045 | 9.44° C | 93% | 1020 hPa | 0 mm | - | 0 W/m² | - |
| 1778359506 | 10° C | 92% | 1019.9 hPa | 0 mm | - | 0 W/m² | - |
| 1778358966 | 10° C | 91% | 1019.9 hPa | 0 mm | - | 0 W/m² | - |
| 1778358426 | 10° C | 90% | 1019.5 hPa | 0 mm | - | 0 W/m² | - |
| 1778357886 | 10° C | 90% | 1019.8 hPa | 0 mm | - | 0 W/m² | - |
| 1778357346 | 10° C | 87% | 1019.7 hPa | 0 mm | - | 0 W/m² | - |
| 1778356805 | 9.44° C | 84% | 1019.5 hPa | 0 mm | - | 0 W/m² | - |
| 1778356445 | 10° C | 85% | 1019.5 hPa | 0 mm | - | 0 W/m² | - |
| 1778355905 | 10° C | 86% | 1019.2 hPa | 0 mm | - | 2 W/m² | - |
| 1778355365 | 10° C | 87% | 1019.2 hPa | 0 mm | - | 3 W/m² | - |
| 1778354826 | 10° C | 86% | 1019.1 hPa | 0 mm | - | 6 W/m² | - |
| 1778354285 | 10.56° C | 86% | 1019.1 hPa | 0 mm | - | 9 W/m² | - |
| 1778353747 | 10.56° C | 85% | 1019 hPa | 0 mm | - | 13 W/m² | - |
| 1778353207 | 11.11° C | 85% | 1019 hPa | 0 mm | - | 21 W/m² | - |
| 1778352845 | 11.67° C | 83% | 1018.9 hPa | 0 mm | - | 25 W/m² | - |
| 1778352305 | 12.22° C | 80% | 1018.9 hPa | 0 mm | - | 32 W/m² | - |
* Rain latest hour (hover to see other rain measurements)
** Current wind speed in m/s (hover to see current wind gust speed)